Torna al catalogo

SEDNA-1

AttivoScienzaSSO
NORAD 60580·PAYLOAD·🇺🇸 United States

Lanciato Aug 16, 2024 da Vandenberg Space Force Base

Loading…

Prossimi Passaggi (prossime 24 ore)

TLE

AggiornatoSource: Space-Track

Epoca: Sep 13, 2026, 18:02 UTC

1 60580U 24149DS  26256.75196279  .00004476  00000-0  29476-3 0  9998
2 60580  97.6588 336.8778 0009900  54.1489 306.0657 15.08005854113733

Traccia SEDNA-1 in tempo reale con AllMySat

Download on the App Store